Temperature
17 17 17 17 17 14 14 13 13 14 13 14 14 14 15 16 16 15 15 15 15 15 14 14 13 13 13 12 11 11 11 11 10 10 10 10 10 10 10 10 10 10 11 11
18 18 17 18 17 15 15 15 14 14 13 14 15 15 16 16 16 16 16 15 15 15 14 14 14 13 13 12 12 11 11 10 10 10 10 10 10 10 10 10 10 10 10 10
16 16 18 18 18 16 16 15 15 15 15 15 15 15 17 18 17 16 16 16 15 15 15 14 14 13 13 12 12 11 11 11 10 10 10 10 10 10 10 10 10 10 10 10
14 17 19 18 18 17 17 16 14 15 15 16 17 18 18 18 18 17 17 16 15 15 15 14 14 14 13 12 12 11 11 11 10 10 10 10 10 10 10 10 10 10 10 10
13 16 17 18 19 18 18 18 17 15 15 17 16 16 18 19 18 18 17 16 16 15 15 14 14 14 13 13 12 12 11 11 11 10 10 10 10 10 10 10 10 10 10 10
13 17 18 19 19 19 19 19 19 18 17 16 15 14 16 19 19 18 17 16 16 15 15 15 14 14 13 13 12 12 11 11 11 10 10 10 10 10 10 10 10 10 10 10
14 16 15 16 18 19 18 18 20 20 19 17 16 17 20 19 19 18 17 17 16 15 15 15 14 14 14 13 13 12 12 11 11 11 10 10 10 10 10 10 10 10 10 10
12 16 17 18 17 17 18 20 21 21 21 20 20 20 19 19 19 18 18 17 16 16 15 15 15 14 14 13 13 12 12 12 11 11 11 11 10 10 10 10 10 10 10 10
13 15 17 17 17 18 19 19 20 20 21 20 20 20 20 19 19 18 18 17 16 16 15 15 15 15 14 14 13 13 12 12 12 11 11 11 11 11 10 10 10 10 10 10
13 15 16 16 17 18 19 19 20 20 20 20 20 20 20 20 19 19 18 17 17 16 16 16 15 15 15 14 14 13 13 12 12 12 11 11 11 11 11 11 11 11 11 11
14 14 16 17 16 18 19 20 20 20 20 20 20 20 20 20 19 19 18 18 17 16 16 16 16 16 15 15 14 14 13 13 13 12 12 12 11 11 11 11 11 11 11 11
14 13 12 14 15 17 19 19 19 20 20 20 19 19 19 19 19 19 18 18 17 17 17 16 16 16 16 15 15 14 14 14 13 13 12 12 12 11 11 11 11 11 11 11
12 13 13 14 14 16 17 18 18 18 18 19 19 19 19 19 19 18 18 18 18 17 17 17 16 16 16 16 15 15 15 14 14 13 13 13 12 12 12 11 11 11 11 11
13 13 13 13 14 15 16 16 17 17 17 17 18 18 18 18 18 18 18 18 18 17 17 17 17 17 16 16 16 15 15 15 14 14 13 13 13 12 12 12 12 11 11 11
12 13 13 12 13 14 15 16 17 17 17 16 17 17 17 17 18 18 18 18 18 17 17 17 17 17 17 16 16 16 16 15 15 15 14 14 13 13 12 12 12 12 11 11
11 12 12 12 13 13 14 14 14 14 14 15 15 15 15 16 16 17 17 17 17 17 17 17 17 17 17 16 16 16 16 16 15 15 15 14 14 13 13 13 12 12 12 12
11 11 11 11 11 11 11 11 11 12 12 13 13 13 14 15 16 16 16 16 16 16 16 16 16 17 16 16 16 16 16 16 16 15 15 15 14 14 13 13 13 13 13 12
11 10 10 10 10 10 10 10 10 11 11 11 11 12 13 13 13 13 14 14 15 15 15 15 15 16 16 16 16 16 16 16 16 16 15 15 15 14 14 14 13 13 13 13
9 9 9 9 9 9 9 9 9 9 9 10 10 10 10 11 11 11 12 12 13 14 14 14 14 14 15 15 15 15 16 16 16 16 15 15 15 15 14 14 14 14 13 13
8 8 8 8 8 8 8 8 8 8 8 8 9 9 9 9 9 10 10 10 9 9 10 11 12 13 14 14 14 15 15 15 15 15 15 15 15 15 15 15 14 14 14 13
8 8 7 7 7 7 7 7 7 7 7 7 7 7 7 7 7 8 8 9 8 9 9 10 10 11 12 12 13 14 14 14 14 15 15 15 15 15 15 15 15 14 14 14
7 7 7 7 7 6 6 6 6 6 6 6 6 6 6 6 6 6 6 6 7 7 7 8 8 9 9 11 11 12 13 13 13 14 14 14 14 14 14 15 15 15 14 14
7 7 6 6 6 6 6 6 6 5 5 5 5 5 5 5 5 5 5 5 6 6 6 6 7 7 8 9 10 10 11 11 12 12 12 13 13 13 14 14 14 14 14 14
6 6 6 6 6 5 5 5 5 5 5 5 5 5 5 5 5 5 5 5 5 5 5 5 5 6 6 7 8 8 8 9 9 10 10 11 11 12 12 13 13 13 14 14
6 6 6 6 5 5 5 5 5 5 5 5 5 4 4 4 4 4 4 4 4 4 4 5 5 5 5 5 6 6 6 7 7 8 8 9 10 10 11 11 12 12 13 13
6 6 6 6 5 5 5 5 5 5 5 5 5 5 4 4 4 4 4 4 4 4 4 4 4 4 4 4 4 5 5 5 6 6 7 7 8 9 10 10 11 11 12 12
6 6 6 6 5 5 5 5 5 5 5 5 5 5 5 4 4 4 4 4 4 4 4 4 4 4 4 4 4 4 4 4 4 4 5 6 7 7 8 9 9 10 11 11
Wind_Speed
3 3 4 5 6 7 7 7 8 8 7 11 9 9 8 8 7 7 7 7 7 6 5 5 4 3 3 3 3 3 4 5 5 6 6 6 7 7 8 8 8 8 8 8
3 2 3 4 6 7 7 6 7 7 9 10 7 4 5 7 8 8 8 8 7 7 6 5 5 4 3 2 2 2 3 4 5 6 6 7 7 7 7 8 8 8 8 8
2 4 3 5 6 7 6 8 8 8 8 5 4 6 8 8 9 9 9 8 8 7 6 6 5 4 4 3 1 1 2 4 5 5 6 6 6 7 7 7 7 7 8 8
2 3 3 7 3 6 6 7 9 9 8 7 8 6 6 7 9 10 9 8 8 6 5 5 4 3 3 2 1 1 3 4 4 5 5 5 6 6 6 5 6 6 7 8
3 0 6 7 2 5 3 6 6 8 9 5 1 3 6 8 10 10 9 8 7 6 5 4 4 4 3 2 1 2 3 4 4 4 4 5 5 6 4 4 5 5 5 7
4 2 4 6 3 2 2 5 5 5 5 3 5 1 6 6 7 9 8 6 6 5 4 4 4 4 4 4 3 4 5 4 4 3 3 4 4 4 3 3 4 4 5 6
4 3 7 8 3 3 2 6 5 3 4 8 8 8 5 3 4 7 7 7 6 6 5 6 5 6 5 5 6 6 4 3 3 3 3 3 3 2 3 3 4 5 5 5
5 2 6 3 4 5 6 4 3 3 4 8 10 8 5 5 5 7 7 7 7 6 6 5 6 7 7 7 7 5 4 4 4 3 3 1 2 2 2 3 3 4 5 5
8 6 4 2 3 4 3 4 4 4 4 5 7 7 7 6 7 7 8 7 6 7 7 5 6 8 9 8 6 5 4 5 4 3 2 2 1 2 2 2 2 3 3 4
3 4 2 3 4 6 5 5 6 5 5 3 6 7 7 7 7 7 7 7 6 7 7 7 7 8 10 7 6 6 6 6 5 4 4 3 2 2 2 2 2 2 2 3
3 3 4 5 8 10 8 6 6 5 3 2 4 6 6 6 7 7 7 6 6 8 9 10 8 9 9 8 7 7 7 6 5 5 5 4 4 4 4 4 5 4 3 2
5 2 1 3 8 11 9 9 8 7 7 6 3 5 5 6 6 6 7 6 7 8 9 10 8 9 9 8 9 8 7 7 6 5 5 4 4 4 7 8 8 9 8 6
3 3 3 3 6 9 7 8 8 7 7 7 7 5 4 4 5 5 6 6 8 10 10 10 9 9 9 8 9 10 9 8 6 6 6 5 5 5 5 5 7 9 10 10
2 1 4 4 6 8 8 8 7 9 9 9 8 7 6 6 5 5 7 8 8 8 9 9 9 11 10 8 9 11 10 10 9 7 7 6 6 6 5 5 5 5 6 9
6 6 5 4 6 8 9 9 12 13 13 13 11 10 10 9 8 8 8 7 6 7 8 8 9 12 9 8 10 11 10 8 8 7 7 7 6 6 6 6 6 6 4 5
6 7 7 7 8 9 10 12 12 12 12 12 13 12 11 9 8 8 9 8 6 7 8 8 10 12 8 7 9 9 10 14 12 8 7 7 7 7 7 7 7 6 7 6
7 5 5 6 7 8 9 8 8 8 9 11 12 12 11 11 12 13 13 11 8 7 7 8 10 11 8 7 9 8 9 10 14 10 8 9 8 9 8 8 8 8 8 8
8 7 7 6 5 6 7 7 8 9 9 9 10 11 12 13 13 13 13 12 11 10 10 11 12 13 10 8 8 8 8 8 9 10 10 9 9 9 8 8 9 10 8 7
9 8 7 7 6 6 5 6 6 7 8 9 10 10 10 11 11 12 12 12 14 15 16 17 21 15 12 11 9 7 8 9 9 9 10 11 11 9 9 10 10 10 9 8
8 7 7 7 6 5 5 5 6 6 7 8 8 9 11 12 12 12 11 9 10 11 14 17 16 13 13 13 13 7 8 10 10 10 10 10 10 11 11 11 11 10 10 9
8 7 7 6 5 5 5 4 5 6 6 7 8 8 8 9 10 10 10 10 11 14 15 19 14 13 14 16 15 8 8 9 10 10 10 11 11 11 11 11 11 11 11 10
6 5 5 4 4 3 3 3 4 4 5 6 6 7 7 8 9 8 7 6 10 17 13 11 11 18 23 20 11 10 9 9 9 9 9 10 11 11 12 12 12 12 11 11
5 4 4 3 2 1 2 3 3 3 4 4 5 6 6 6 5 6 8 8 9 17 13 9 18 26 26 15 12 12 11 10 9 9 9 10 10 11 11 12 12 11 11 11
5 4 3 2 2 1 1 3 3 3 4 4 4 5 4 5 5 4 5 11 15 16 9 14 21 25 21 12 12 13 12 12 11 10 10 9 9 9 10 10 10 10 11 12
5 4 3 3 2 3 3 3 4 4 4 4 6 6 4 3 4 6 7 8 13 14 9 14 21 21 14 10 11 12 12 12 13 12 10 10 9 9 9 9 10 10 10 10
4 4 4 5 4 4 3 2 3 3 3 4 5 5 5 5 5 6 6 8 10 12 9 8 10 12 9 10 10 11 11 13 13 12 12 12 11 10 9 9 11 10 10 10
4 3 3 3 4 4 4 4 4 4 4 4 5 6 6 6 6 6 7 7 8 8 8 8 8 8 8 9 9 10 10 10 11 12 12 12 12 11 11 11 9 9 8 8
Wind_Direction
220 218 178 210 202 177 186 194 207 243 250 267 263 243 238 232 234 244 258 261 262 264 271 277 282 286 297 307 323 343 356 356 347 343 350 355 358 357 358 3 4 359 2 2
8 356 210 252 241 203 215 214 232 263 275 261 265 239 234 230 226 237 248 250 255 261 264 263 259 259 269 280 299 329 344 341 340 349 356 358 354 355 0 2 0 5 6 4
327 331 23 291 249 197 215 214 200 227 247 264 254 237 233 226 222 230 239 243 244 248 251 252 248 236 234 242 270 316 324 332 339 346 352 352 354 359 360 356 0 4 4 5
72 33 272 249 250 190 217 248 219 235 251 242 239 252 250 223 216 229 234 234 236 237 244 247 238 220 208 196 226 286 308 321 329 341 344 349 358 359 354 353 359 1 3 2
104 62 293 302 248 174 195 289 231 230 256 256 238 351 300 232 210 219 222 220 222 223 223 226 224 205 179 191 229 269 287 298 310 325 334 345 352 348 348 353 1 3 360 5
118 142 244 257 288 173 118 306 278 217 248 183 125 41 277 265 213 216 214 210 212 209 206 216 218 178 179 209 232 253 263 277 294 306 317 327 333 334 338 347 350 359 6 5
147 213 264 253 252 116 86 266 279 226 219 172 191 212 237 283 219 207 204 204 199 193 206 220 197 173 196 216 234 243 252 271 290 297 296 301 327 337 339 351 0 5 3 359
146 175 262 265 151 174 225 261 275 255 216 203 229 248 254 260 235 212 202 200 191 195 220 223 189 182 207 229 236 235 238 257 274 286 295 317 337 340 352 359 4 360 356 352
184 204 252 304 237 288 282 271 277 273 262 230 241 249 242 241 233 220 210 206 196 200 222 227 203 194 213 234 223 216 229 247 259 273 277 280 283 309 334 348 347 341 348 344
232 264 287 332 332 328 303 274 286 288 286 238 240 254 246 241 231 223 219 213 203 201 220 234 220 212 222 230 207 205 227 243 248 253 262 260 250 243 251 272 292 308 317 322
235 301 340 8 6 343 333 337 342 339 336 301 263 270 253 244 236 227 224 217 204 208 223 236 229 224 227 219 199 209 227 237 241 240 244 251 247 235 231 232 215 227 245 252
200 206 229 305 339 344 353 1 1 7 9 4 333 289 279 258 248 237 232 223 219 223 231 240 234 233 231 211 198 206 224 233 231 231 235 235 246 267 243 235 244 238 230 224
231 268 240 290 341 348 355 2 10 23 16 4 356 339 315 289 275 258 250 239 233 233 234 237 236 241 238 211 199 206 219 226 223 221 224 227 226 236 266 272 250 246 243 239
337 122 91 30 358 353 3 7 24 31 22 13 3 359 353 337 323 301 273 259 251 247 246 241 238 246 243 212 204 213 220 227 222 220 219 220 221 223 225 241 266 272 253 242
46 69 90 67 35 26 24 31 39 29 17 12 9 7 1 353 339 322 310 302 281 262 257 251 247 255 247 212 210 217 219 224 223 220 217 217 217 219 221 227 236 249 263 266
97 75 74 66 52 38 36 37 37 24 14 10 8 3 354 345 338 338 341 339 321 292 280 269 262 264 257 223 221 224 225 227 218 217 217 215 214 216 221 225 231 238 244 243
128 105 83 71 56 46 40 35 30 19 13 12 5 358 359 3 3 359 353 347 333 318 320 316 300 295 280 243 228 232 230 229 222 218 219 219 217 219 222 221 226 233 240 232
117 118 117 106 88 66 44 33 28 23 17 6 5 11 15 13 5 355 349 349 355 357 353 338 326 320 305 277 250 243 236 231 221 220 221 221 221 220 218 221 226 232 241 240
110 107 100 92 86 76 55 34 22 17 12 12 15 15 13 9 1 354 352 1 6 357 347 340 337 333 321 309 288 258 245 240 233 228 224 224 224 222 220 223 227 230 232 229
109 107 101 90 78 71 57 34 24 21 14 13 16 15 12 6 0 359 0 7 4 346 335 340 341 338 332 324 313 281 258 249 244 238 229 225 225 226 225 225 226 228 228 227
119 112 103 93 79 61 49 32 26 18 8 10 14 8 359 352 354 357 1 359 348 343 345 349 350 343 339 335 323 304 279 264 254 247 239 233 231 230 228 227 226 226 227 226
128 120 111 102 88 58 24 19 18 11 7 4 3 359 355 351 349 348 346 336 332 344 350 347 346 348 349 344 335 325 309 290 274 262 252 243 237 235 233 230 229 228 226 224
140 138 131 125 116 72 0 4 1 354 349 344 342 341 338 329 328 339 338 333 333 345 348 341 347 353 355 352 345 340 332 320 304 288 272 260 250 243 239 236 233 229 226 225
154 157 158 151 132 100 340 312 314 310 309 309 311 314 318 322 322 311 299 324 340 344 342 340 350 355 357 354 349 346 342 335 328 317 303 286 271 259 250 243 239 235 231 227
167 172 176 177 192 220 242 275 302 308 315 313 309 306 298 276 277 297 307 313 328 338 334 339 347 350 351 345 347 346 344 340 337 333 325 314 299 283 269 257 247 242 237 233
180 195 209 212 216 224 229 238 258 275 284 296 300 295 295 291 285 290 298 305 310 324 326 322 326 334 335 335 337 340 341 341 341 338 335 330 322 312 298 282 266 255 247 241
199 208 220 243 245 227 221 225 239 257 258 260 277 285 290 293 293 294 296 300 304 307 308 311 314 318 321 323 326 329 332 336 338 340 339 337 334 327 319 307 294 278 264 252
Height
1550 1549 1551 1551 1553 1559 1562 1564 1568 1560 1556 1544 1538 1536 1535 1536 1538 1539 1539 1539 1539 1539 1538 1537 1536 1534 1532 1530 1528 1526 1523 1520 1517 1514 1511 1509 1506 1503 1501 1498 1495 1493 1490 1488
1550 1548 1548 1549 1548 1552 1555 1555 1556 1555 1550 1535 1533 1533 1533 1534 1535 1536 1536 1537 1537 1537 1537 1536 1535 1533 1532 1530 1528 1526 1523 1521 1518 1515 1513 1510 1507 1505 1502 1500 1497 1495 1492 1490
1558 1552 1549 1552 1544 1547 1547 1546 1547 1549 1541 1533 1532 1531 1531 1531 1532 1533 1534 1535 1535 1536 1535 1535 1534 1533 1531 1530 1528 1526 1524 1522 1519 1516 1514 1511 1509 1506 1504 1501 1499 1497 1494 1492
1562 1555 1557 1548 1536 1538 1540 1539 1538 1536 1532 1531 1530 1529 1529 1529 1530 1531 1532 1533 1534 1534 1534 1534 1533 1532 1531 1529 1528 1526 1524 1522 1520 1517 1515 1513 1510 1508 1505 1503 1501 1498 1496 1494
1566 1563 1558 1542 1534 1535 1538 1536 1530 1531 1528 1528 1528 1528 1527 1526 1527 1528 1530 1531 1532 1533 1533 1532 1532 1531 1530 1529 1527 1526 1524 1523 1520 1518 1516 1514 1511 1509 1507 1504 1502 1500 1498 1496
1565 1559 1558 1543 1532 1532 1536 1538 1528 1527 1526 1527 1528 1533 1528 1524 1525 1526 1527 1529 1530 1531 1531 1531 1531 1530 1529 1528 1527 1526 1524 1523 1521 1519 1517 1515 1512 1510 1508 1506 1504 1501 1499 1497
1563 1561 1554 1535 1531 1533 1544 1542 1527 1525 1525 1525 1525 1526 1525 1524 1524 1524 1526 1527 1528 1529 1529 1530 1529 1529 1528 1527 1526 1525 1524 1523 1521 1519 1517 1515 1513 1511 1509 1507 1505 1503 1501 1499
1563 1560 1552 1530 1531 1534 1534 1526 1525 1524 1524 1523 1522 1522 1522 1522 1523 1523 1524 1525 1526 1527 1527 1528 1528 1527 1527 1526 1525 1524 1523 1522 1521 1520 1518 1516 1514 1512 1510 1508 1506 1504 1502 1500
1546 1544 1533 1530 1529 1528 1527 1525 1524 1524 1523 1522 1521 1520 1520 1520 1521 1522 1522 1523 1524 1524 1525 1526 1526 1526 1525 1525 1524 1523 1522 1521 1520 1519 1518 1516 1514 1512 1510 1508 1506 1504 1503 1501
1538 1532 1530 1529 1527 1526 1524 1523 1523 1522 1521 1520 1519 1519 1518 1519 1519 1519 1520 1521 1522 1522 1523 1523 1523 1523 1523 1523 1522 1522 1521 1520 1519 1518 1517 1515 1514 1512 1510 1508 1507 1505 1503 1502
1533 1530 1528 1527 1526 1524 1523 1522 1521 1520 1519 1519 1518 1517 1517 1517 1517 1517 1518 1519 1519 1519 1520 1520 1521 1521 1521 1521 1520 1519 1519 1518 1517 1516 1515 1514 1513 1512 1510 1508 1507 1505 1503 1502
1530 1529 1529 1528 1526 1524 1522 1521 1520 1519 1518 1517 1517 1516 1515 1515 1515 1515 1515 1516 1516 1516 1517 1517 1518 1518 1518 1518 1517 1516 1516 1515 1515 1514 1513 1512 1511 1510 1509 1507 1506 1504 1503 1502
1526 1526 1526 1527 1526 1524 1522 1521 1520 1519 1518 1517 1515 1514 1513 1513 1512 1512 1512 1512 1513 1513 1513 1513 1514 1514 1514 1514 1514 1513 1512 1512 1512 1511 1510 1509 1508 1508 1507 1506 1505 1503 1502 1501
1523 1524 1525 1525 1524 1523 1522 1521 1520 1519 1517 1516 1514 1513 1512 1511 1510 1509 1509 1508 1508 1508 1509 1509 1509 1509 1510 1510 1509 1509 1508 1508 1507 1507 1507 1506 1505 1504 1504 1503 1502 1501 1501 1500
1522 1522 1523 1524 1524 1522 1521 1520 1518 1517 1516 1514 1513 1511 1510 1508 1507 1506 1505 1504 1504 1503 1503 1504 1504 1504 1505 1505 1504 1503 1503 1503 1503 1502 1502 1502 1501 1501 1500 1499 1498 1498 1498 1497
1521 1522 1523 1522 1522 1521 1520 1518 1517 1516 1515 1514 1512 1510 1509 1508 1506 1504 1503 1501 1499 1498 1498 1498 1498 1498 1499 1498 1498 1497 1497 1497 1497 1497 1496 1496 1496 1495 1495 1495 1494 1494 1493 1493
1519 1520 1521 1521 1521 1520 1519 1519 1518 1517 1515 1513 1512 1510 1508 1506 1504 1501 1500 1498 1497 1495 1494 1492 1491 1491 1491 1491 1490 1490 1490 1490 1491 1490 1490 1490 1490 1489 1489 1489 1488 1488 1488 1489
1518 1519 1520 1520 1520 1520 1520 1519 1518 1517 1515 1514 1512 1509 1506 1504 1501 1499 1497 1495 1493 1492 1490 1488 1486 1484 1483 1483 1482 1482 1482 1482 1483 1482 1483 1483 1483 1483 1483 1483 1482 1482 1482 1483
1517 1518 1519 1520 1520 1520 1519 1519 1518 1517 1515 1513 1511 1509 1506 1504 1502 1499 1496 1493 1489 1487 1485 1483 1481 1479 1477 1475 1474 1474 1473 1474 1474 1474 1474 1475 1475 1475 1475 1475 1475 1475 1476 1476
1516 1518 1519 1519 1519 1519 1518 1518 1517 1516 1514 1512 1510 1508 1506 1503 1501 1498 1495 1492 1490 1487 1483 1480 1477 1474 1471 1469 1467 1466 1465 1464 1464 1465 1465 1465 1466 1466 1466 1467 1467 1468 1468 1468
1515 1517 1518 1518 1518 1518 1518 1517 1516 1515 1513 1511 1509 1507 1505 1503 1500 1497 1493 1490 1488 1485 1481 1477 1473 1470 1466 1464 1461 1459 1457 1456 1455 1455 1455 1456 1456 1456 1457 1457 1458 1458 1459 1460
1514 1515 1516 1516 1517 1517 1516 1516 1515 1514 1512 1510 1509 1506 1504 1501 1499 1496 1493 1490 1486 1483 1479 1475 1471 1467 1463 1459 1456 1453 1450 1448 1447 1446 1446 1446 1446 1446 1447 1447 1448 1448 1449 1450
1512 1513 1514 1515 1515 1515 1515 1514 1513 1512 1511 1509 1507 1505 1503 1501 1498 1495 1491 1489 1485 1481 1478 1473 1469 1465 1461 1456 1452 1448 1445 1442 1439 1438 1437 1437 1436 1436 1436 1437 1438 1438 1439 1440
1510 1511 1512 1513 1513 1514 1513 1513 1512 1511 1510 1508 1506 1504 1502 1500 1497 1495 1492 1488 1485 1481 1477 1472 1468 1463 1458 1454 1449 1445 1441 1437 1434 1431 1429 1427 1427 1426 1426 1426 1427 1427 1428 1429
1508 1509 1510 1511 1511 1511 1511 1511 1510 1509 1508 1506 1505 1503 1501 1499 1496 1493 1490 1487 1484 1480 1475 1471 1466 1462 1457 1452 1447 1442 1438 1434 1430 1426 1423 1420 1418 1417 1416 1416 1416 1416 1417 1418
1506 1507 1508 1508 1509 1509 1509 1508 1508 1507 1506 1504 1503 1501 1499 1497 1495 1492 1489 1486 1482 1478 1474 1469 1465 1460 1455 1450 1446 1441 1436 1431 1426 1422 1418 1414 1411 1409 1407 1406 1405 1406 1406 1407
1503 1504 1505 1506 1506 1506 1506 1506 1505 1504 1503 1501 1500 1498 1496 1494 1492 1489 1486 1483 1479 1476 1472 1467 1463 1458 1454 1449 1444 1439 1434 1429 1424 1419 1414 1410 1406 1403 1400 1398 1396 1395 1395 1396